Data supplied by UK-AIR on 15/3/2024
All Data GMT hour ending 
Status: R =Ratified P=Provisional,P*=As supplied
,,Cardiff Newport Road,,,,,,,,,,,,,,,,,,,,,,,
Date,time,"PM<sub>10</sub> particulate matter (Hourly measured)",status,unit,"Nitric oxide",status,unit,"Nitrogen dioxide",status,unit,"Nitrogen oxides as nitrogen dioxide",status,unit
 
01-01-2023,01:00,24.155,R,ugm-3 (Ref.eq),0.75373,R,ugm-3,6.63045,R,ugm-3,7.78615,R,ugm-3
01-01-2023,02:00,23.189,R,ugm-3 (Ref.eq),0.44337,R,ugm-3,6.49698,R,ugm-3,7.17680,R,ugm-3
01-01-2023,03:00,20.290,R,ugm-3 (Ref.eq),0.49879,R,ugm-3,3.90689,R,ugm-3,4.67169,R,ugm-3
01-01-2023,04:00,16.425,R,ugm-3 (Ref.eq),0.26602,R,ugm-3,2.63886,R,ugm-3,3.04675,R,ugm-3
01-01-2023,05:00,17.392,R,ugm-3 (Ref.eq),0.33253,R,ugm-3,2.48611,R,ugm-3,2.99598,R,ugm-3
01-01-2023,06:00,13.527,R,ugm-3 (Ref.eq),0.29928,R,ugm-3,1.77540,R,ugm-3,2.23429,R,ugm-3
01-01-2023,07:00,14.493,R,ugm-3 (Ref.eq),0.36578,R,ugm-3,1.67343,R,ugm-3,2.23429,R,ugm-3
01-01-2023,08:00,15.459,R,ugm-3 (Ref.eq),0.79807,R,ugm-3,1.92463,R,ugm-3,3.14831,R,ugm-3
01-01-2023,09:00,25.121,R,ugm-3 (Ref.eq),0.73156,R,ugm-3,3.09297,R,ugm-3,4.21468,R,ugm-3
01-01-2023,10:00,19.324,R,ugm-3 (Ref.eq),0.66506,R,ugm-3,4.97221,R,ugm-3,5.99195,R,ugm-3
01-01-2023,11:00,25.121,R,ugm-3 (Ref.eq),0.56530,R,ugm-3,4.10959,R,ugm-3,4.97637,R,ugm-3
01-01-2023,12:00,31.885,R,ugm-3 (Ref.eq),0.86457,R,ugm-3,6.59590,R,ugm-3,7.92156,R,ugm-3
01-01-2023,13:00,27.054,R,ugm-3 (Ref.eq),0.76481,R,ugm-3,6.49497,R,ugm-3,7.66767,R,ugm-3
01-01-2023,14:00,23.189,R,ugm-3 (Ref.eq),2.69347,R,ugm-3,11.71319,R,ugm-3,15.84312,R,ugm-3
01-01-2023,15:00,24.155,R,ugm-3 (Ref.eq),1.29686,R,ugm-3,13.34684,R,ugm-3,15.33533,R,ugm-3
01-01-2023,16:00,15.459,R,ugm-3 (Ref.eq),1.29686,R,ugm-3,12.22970,R,ugm-3,14.21819,R,ugm-3
01-01-2023,17:00,13.527,R,ugm-3 (Ref.eq),0.79807,R,ugm-3,12.23282,R,ugm-3,13.45650,R,ugm-3
01-01-2023,18:00,9.662,R,ugm-3 (Ref.eq),0.66506,R,ugm-3,13.50313,R,ugm-3,14.52286,R,ugm-3
01-01-2023,19:00,11.594,R,ugm-3 (Ref.eq),2.49396,R,ugm-3,16.89392,R,ugm-3,20.71793,R,ugm-3
01-01-2023,20:00,8.696,R,ugm-3 (Ref.eq),0.96433,R,ugm-3,11.41931,R,ugm-3,12.89793,R,ugm-3
01-01-2023,21:00,10.628,R,ugm-3 (Ref.eq),1.46312,R,ugm-3,9.99438,R,ugm-3,12.23780,R,ugm-3
01-01-2023,22:00,10.628,R,ugm-3 (Ref.eq),0.73156,R,ugm-3,8.72946,R,ugm-3,9.85117,R,ugm-3
01-01-2023,23:00,6.763,R,ugm-3 (Ref.eq),5.22068,R,ugm-3,8.39676,R,ugm-3,16.40169,R,ugm-3
01-01-2023,24:00,12.561,R,ugm-3 (Ref.eq),0.63180,R,ugm-3,7.46060,R,ugm-3,8.42935,R,ugm-3
02-01-2023,01:00,15.459,R,ugm-3 (Ref.eq),0.84225,R,ugm-3,8.66479,R,ugm-3,9.95622,R,ugm-3
02-01-2023,02:00,9.662,R,ugm-3 (Ref.eq),0.22165,R,ugm-3,3.45300,R,ugm-3,3.79285,R,ugm-3
02-01-2023,03:00,8.696,R,ugm-3 (Ref.eq),0.53195,R,ugm-3,3.65450,R,ugm-3,4.47014,R,ugm-3
02-01-2023,04:00,5.797,R,ugm-3 (Ref.eq),0.39896,R,ugm-3,6.39826,R,ugm-3,7.01000,R,ugm-3
02-01-2023,05:00,6.763,R,ugm-3 (Ref.eq),0.43221,R,ugm-3,4.46779,R,ugm-3,5.13050,R,ugm-3
02-01-2023,06:00,6.763,R,ugm-3 (Ref.eq),0.93091,R,ugm-3,6.85255,R,ugm-3,8.27992,R,ugm-3
02-01-2023,07:00,8.696,R,ugm-3 (Ref.eq),2.32728,R,ugm-3,13.44858,R,ugm-3,17.01702,R,ugm-3
02-01-2023,08:00,10.628,R,ugm-3 (Ref.eq),3.35793,R,ugm-3,20.40218,R,ugm-3,25.55092,R,ugm-3
02-01-2023,09:00,9.662,R,ugm-3 (Ref.eq),6.58287,R,ugm-3,26.12472,R,ugm-3,36.21831,R,ugm-3
02-01-2023,10:00,10.628,R,ugm-3 (Ref.eq),17.18859,R,ugm-3,34.55021,R,ugm-3,60.90568,R,ugm-3
02-01-2023,11:00,8.696,R,ugm-3 (Ref.eq),6.68261,R,ugm-3,23.83831,R,ugm-3,34.08483,R,ugm-3
02-01-2023,12:00,14.493,R,ugm-3 (Ref.eq),8.37819,R,ugm-3,22.30519,R,ugm-3,35.15157,R,ugm-3
02-01-2023,13:00,8.696,R,ugm-3 (Ref.eq),5.08676,R,ugm-3,14.90670,R,ugm-3,22.70629,R,ugm-3
02-01-2023,14:00,10.628,R,ugm-3 (Ref.eq),2.85922,R,ugm-3,9.99149,R,ugm-3,14.37557,R,ugm-3
02-01-2023,15:00,10.628,R,ugm-3 (Ref.eq),2.02806,R,ugm-3,10.85955,R,ugm-3,13.96919,R,ugm-3
02-01-2023,16:00,8.696,R,ugm-3 (Ref.eq),8.54443,R,ugm-3,20.22161,R,ugm-3,33.32287,R,ugm-3
02-01-2023,17:00,16.425,R,ugm-3 (Ref.eq),16.25768,R,ugm-3,59.14105,R,ugm-3,84.06914,R,ugm-3
02-01-2023,18:00,38.648,R,ugm-3 (Ref.eq),181.95970,R,ugm-3,93.08752,R,ugm-3,372.08850,R,ugm-3
02-01-2023,19:00,37.682,R,ugm-3 (Ref.eq),159.35188,R,ugm-3,86.70833,R,ugm-3,331.04447,R,ugm-3
02-01-2023,20:00,32.851,R,ugm-3 (Ref.eq),125.40691,R,ugm-3,71.70444,R,ugm-3,263.99235,R,ugm-3
02-01-2023,21:00,25.121,R,ugm-3 (Ref.eq),78.36269,R,ugm-3,55.09542,R,ugm-3,175.24988,R,ugm-3
02-01-2023,22:00,23.189,R,ugm-3 (Ref.eq),44.21824,R,ugm-3,45.32472,R,ugm-3,113.12506,R,ugm-3
02-01-2023,23:00,20.290,R,ugm-3 (Ref.eq),26.36471,R,ugm-3,43.59303,R,ugm-3,84.01835,R,ugm-3
02-01-2023,24:00,21.256,R,ugm-3 (Ref.eq),26.06549,R,ugm-3,43.39146,R,ugm-3,83.35798,R,ugm-3
03-01-2023,01:00,24.155,R,ugm-3 (Ref.eq),16.79770,R,ugm-3,41.11628,R,ugm-3,66.87240,R,ugm-3
03-01-2023,02:00,16.425,R,ugm-3 (Ref.eq),6.60385,R,ugm-3,28.56132,R,ugm-3,38.68707,R,ugm-3
03-01-2023,03:00,5.797,R,ugm-3 (Ref.eq),1.36288,R,ugm-3,11.47787,R,ugm-3,13.56758,R,ugm-3
03-01-2023,04:00,11.594,R,ugm-3 (Ref.eq),0.69806,R,ugm-3,8.43204,R,ugm-3,9.50238,R,ugm-3
03-01-2023,05:00,8.696,R,ugm-3 (Ref.eq),0.59834,R,ugm-3,6.09502,R,ugm-3,7.01246,R,ugm-3
03-01-2023,06:00,10.628,R,ugm-3 (Ref.eq),0.69806,R,ugm-3,5.43397,R,ugm-3,6.50431,R,ugm-3
03-01-2023,07:00,14.493,R,ugm-3 (Ref.eq),0.63158,R,ugm-3,5.84079,R,ugm-3,6.80920,R,ugm-3
03-01-2023,08:00,8.696,R,ugm-3 (Ref.eq),2.85871,R,ugm-3,9.84487,R,ugm-3,14.22817,R,ugm-3
03-01-2023,09:00,5.797,R,ugm-3 (Ref.eq),0.79778,R,ugm-3,14.78345,R,ugm-3,16.00669,R,ugm-3
03-01-2023,10:00,6.763,R,ugm-3 (Ref.eq),0.76454,R,ugm-3,11.32819,R,ugm-3,12.50046,R,ugm-3
03-01-2023,11:00,5.797,R,ugm-3 (Ref.eq),7.57891,R,ugm-3,19.68114,R,ugm-3,31.30197,R,ugm-3
03-01-2023,12:00,5.797,R,ugm-3 (Ref.eq),5.58446,R,ugm-3,21.36725,R,ugm-3,29.92997,R,ugm-3
03-01-2023,13:00,4.831,R,ugm-3 (Ref.eq),1.76176,R,ugm-3,12.94965,R,ugm-3,15.65099,R,ugm-3
03-01-2023,14:00,10.628,R,ugm-3 (Ref.eq),1.62880,R,ugm-3,10.76523,R,ugm-3,13.26269,R,ugm-3
03-01-2023,15:00,8.696,R,ugm-3 (Ref.eq),2.26038,R,ugm-3,11.06720,R,ugm-3,14.53306,R,ugm-3
03-01-2023,16:00,7.730,R,ugm-3 (Ref.eq),1.96121,R,ugm-3,11.67836,R,ugm-3,14.68550,R,ugm-3
03-01-2023,17:00,4.831,R,ugm-3 (Ref.eq),0.99723,R,ugm-3,13.20726,R,ugm-3,14.73632,R,ugm-3
03-01-2023,18:00,10.628,R,ugm-3 (Ref.eq),3.59001,R,ugm-3,16.95558,R,ugm-3,22.46018,R,ugm-3
03-01-2023,19:00,6.763,R,ugm-3 (Ref.eq),1.22991,R,ugm-3,8.68366,R,ugm-3,10.56950,R,ugm-3
03-01-2023,20:00,4.831,R,ugm-3 (Ref.eq),1.16343,R,ugm-3,6.39730,R,ugm-3,8.18120,R,ugm-3
03-01-2023,21:00,17.392,R,ugm-3 (Ref.eq),1.26315,R,ugm-3,8.48025,R,ugm-3,10.41705,R,ugm-3
03-01-2023,22:00,17.392,R,ugm-3 (Ref.eq),0.53185,R,ugm-3,4.26599,R,ugm-3,5.08149,R,ugm-3
03-01-2023,23:00,15.459,R,ugm-3 (Ref.eq),0.73130,R,ugm-3,3.50285,R,ugm-3,4.62416,R,ugm-3
03-01-2023,24:00,16.425,R,ugm-3 (Ref.eq),0.43213,R,ugm-3,1.82734,R,ugm-3,2.48993,R,ugm-3
04-01-2023,01:00,12.561,R,ugm-3 (Ref.eq),0.75332,R,ugm-3,1.69155,R,ugm-3,2.84663,R,ugm-3
04-01-2023,02:00,6.763,R,ugm-3 (Ref.eq),0.39882,R,ugm-3,1.62513,R,ugm-3,2.23664,R,ugm-3
04-01-2023,03:00,6.763,R,ugm-3 (Ref.eq),0.36558,R,ugm-3,1.52359,R,ugm-3,2.08414,R,ugm-3
04-01-2023,04:00,5.797,R,ugm-3 (Ref.eq),0.43205,R,ugm-3,0.96418,R,ugm-3,1.62665,R,ugm-3
04-01-2023,05:00,7.730,R,ugm-3 (Ref.eq),0.26588,R,ugm-3,0.91398,R,ugm-3,1.32165,R,ugm-3
04-01-2023,06:00,9.662,R,ugm-3 (Ref.eq),0.39882,R,ugm-3,1.21847,R,ugm-3,1.82998,R,ugm-3
04-01-2023,07:00,15.459,R,ugm-3 (Ref.eq),0.43205,R,ugm-3,2.03166,R,ugm-3,2.69414,R,ugm-3
04-01-2023,08:00,24.155,R,ugm-3 (Ref.eq),1.09675,R,ugm-3,4.01160,R,ugm-3,5.69326,R,ugm-3
04-01-2023,09:00,28.020,R,ugm-3 (Ref.eq),0.79764,R,ugm-3,5.43606,R,ugm-3,6.65909,R,ugm-3
04-01-2023,10:00,29.952,R,ugm-3 (Ref.eq),0.83087,R,ugm-3,4.82594,R,ugm-3,6.09993,R,ugm-3
04-01-2023,11:00,37.682,R,ugm-3 (Ref.eq),1.03028,R,ugm-3,4.72352,R,ugm-3,6.30326,R,ugm-3
04-01-2023,12:00,28.986,R,ugm-3 (Ref.eq),1.46234,R,ugm-3,4.56937,R,ugm-3,6.81159,R,ugm-3
04-01-2023,13:00,34.783,R,ugm-3 (Ref.eq),1.96086,R,ugm-3,4.87247,R,ugm-3,7.87907,R,ugm-3
04-01-2023,14:00,38.648,R,ugm-3 (Ref.eq),1.39587,R,ugm-3,4.16296,R,ugm-3,6.30326,R,ugm-3
04-01-2023,15:00,36.716,R,ugm-3 (Ref.eq),1.62851,R,ugm-3,4.77207,R,ugm-3,7.26908,R,ugm-3
04-01-2023,16:00,38.648,R,ugm-3 (Ref.eq),1.42910,R,ugm-3,4.97616,R,ugm-3,7.16741,R,ugm-3
04-01-2023,17:00,38.648,R,ugm-3 (Ref.eq),1.19646,R,ugm-3,4.72288,R,ugm-3,6.55742,R,ugm-3
04-01-2023,18:00,37.682,R,ugm-3 (Ref.eq),1.19646,R,ugm-3,4.36705,R,ugm-3,6.20159,R,ugm-3
04-01-2023,19:00,37.682,R,ugm-3 (Ref.eq),1.29616,R,ugm-3,4.57000,R,ugm-3,6.55742,R,ugm-3
04-01-2023,20:00,40.580,R,ugm-3 (Ref.eq),0.66470,R,ugm-3,3.70826,R,ugm-3,4.72744,R,ugm-3
04-01-2023,21:00,38.648,R,ugm-3 (Ref.eq),0.76440,R,ugm-3,3.50454,R,ugm-3,4.67661,R,ugm-3
04-01-2023,22:00,38.648,R,ugm-3 (Ref.eq),0.69793,R,ugm-3,3.30147,R,ugm-3,4.37161,R,ugm-3
04-01-2023,23:00,35.749,R,ugm-3 (Ref.eq),0.56499,R,ugm-3,2.53948,R,ugm-3,3.40579,R,ugm-3
04-01-2023,24:00,34.783,R,ugm-3 (Ref.eq),0.69793,R,ugm-3,1.82732,R,ugm-3,2.89746,R,ugm-3
05-01-2023,01:00,38.648,R,ugm-3 (Ref.eq),0.57597,R,ugm-3,1.76109,R,ugm-3,2.64423,R,ugm-3
05-01-2023,02:00,33.817,R,ugm-3 (Ref.eq),0.44305,R,ugm-3,1.01568,R,ugm-3,1.69502,R,ugm-3
05-01-2023,03:00,35.749,R,ugm-3 (Ref.eq),0.43198,R,ugm-3,0.96486,R,ugm-3,1.62722,R,ugm-3
05-01-2023,04:00,23.189,R,ugm-3 (Ref.eq),0.49843,R,ugm-3,1.16807,R,ugm-3,1.93232,R,ugm-3
05-01-2023,05:00,5.797,R,ugm-3 (Ref.eq),0.23260,R,ugm-3,1.67737,R,ugm-3,2.03402,R,ugm-3
05-01-2023,06:00,6.763,R,ugm-3 (Ref.eq),0.49843,R,ugm-3,7.98204,R,ugm-3,8.74630,R,ugm-3
05-01-2023,07:00,5.797,R,ugm-3 (Ref.eq),0.83072,R,ugm-3,4.67576,R,ugm-3,5.94951,R,ugm-3
05-01-2023,08:00,7.730,R,ugm-3 (Ref.eq),1.06333,R,ugm-3,10.16692,R,ugm-3,11.79733,R,ugm-3
05-01-2023,09:00,12.561,R,ugm-3 (Ref.eq),0.86395,R,ugm-3,12.81174,R,ugm-3,14.13645,R,ugm-3
05-01-2023,10:00,11.594,R,ugm-3 (Ref.eq),0.99687,R,ugm-3,12.15029,R,ugm-3,13.67880,R,ugm-3
05-01-2023,11:00,8.696,R,ugm-3 (Ref.eq),2.15988,R,ugm-3,13.82486,R,ugm-3,17.13664,R,ugm-3
05-01-2023,12:00,8.696,R,ugm-3 (Ref.eq),1.59499,R,ugm-3,12.30105,R,ugm-3,14.74666,R,ugm-3
05-01-2023,13:00,15.459,R,ugm-3 (Ref.eq),5.51600,R,ugm-3,19.66260,R,ugm-3,28.12035,R,ugm-3
05-01-2023,14:00,13.527,R,ugm-3 (Ref.eq),6.04766,R,ugm-3,17.16933,R,ugm-3,26.44228,R,ugm-3
05-01-2023,15:00,8.696,R,ugm-3 (Ref.eq),3.98747,R,ugm-3,14.83639,R,ugm-3,20.95043,R,ugm-3
05-01-2023,16:00,5.797,R,ugm-3 (Ref.eq),1.52853,R,ugm-3,11.08083,R,ugm-3,13.42455,R,ugm-3
05-01-2023,17:00,4.831,R,ugm-3 (Ref.eq),1.79436,R,ugm-3,12.85980,R,ugm-3,15.61112,R,ugm-3
05-01-2023,18:00,9.662,R,ugm-3 (Ref.eq),1.89405,R,ugm-3,13.26631,R,ugm-3,16.17047,R,ugm-3
05-01-2023,19:00,7.730,R,ugm-3 (Ref.eq),1.46207,R,ugm-3,9.75892,R,ugm-3,12.00073,R,ugm-3
05-01-2023,20:00,6.763,R,ugm-3 (Ref.eq),0.63135,R,ugm-3,7.72739,R,ugm-3,8.69544,R,ugm-3
05-01-2023,21:00,5.797,R,ugm-3 (Ref.eq),1.49530,R,ugm-3,8.79266,R,ugm-3,11.08542,R,ugm-3
05-01-2023,22:00,6.763,R,ugm-3 (Ref.eq),1.06333,R,ugm-3,6.09888,R,ugm-3,7.72928,R,ugm-3
05-01-2023,23:00,8.696,R,ugm-3 (Ref.eq),0.73104,R,ugm-3,4.52350,R,ugm-3,5.64441,R,ugm-3
05-01-2023,24:00,9.662,R,ugm-3 (Ref.eq),0.66458,R,ugm-3,7.32048,R,ugm-3,8.33949,R,ugm-3
06-01-2023,01:00,6.763,R,ugm-3 (Ref.eq),0.53157,R,ugm-3,7.79865,R,ugm-3,8.61371,R,ugm-3
06-01-2023,02:00,7.730,R,ugm-3 (Ref.eq),0.39868,R,ugm-3,3.05123,R,ugm-3,3.66252,R,ugm-3
06-01-2023,03:00,8.696,R,ugm-3 (Ref.eq),0.53157,R,ugm-3,2.03357,R,ugm-3,2.84863,R,ugm-3
06-01-2023,04:00,7.730,R,ugm-3 (Ref.eq),0.39868,R,ugm-3,3.61078,R,ugm-3,4.22208,R,ugm-3
06-01-2023,05:00,13.527,R,ugm-3 (Ref.eq),0.33223,R,ugm-3,4.52656,R,ugm-3,5.03597,R,ugm-3
06-01-2023,06:00,9.662,R,ugm-3 (Ref.eq),0.53157,R,ugm-3,4.47525,R,ugm-3,5.29031,R,ugm-3
06-01-2023,07:00,9.662,R,ugm-3 (Ref.eq),0.66446,R,ugm-3,5.84841,R,ugm-3,6.86723,R,ugm-3
06-01-2023,08:00,8.696,R,ugm-3 (Ref.eq),3.22263,R,ugm-3,16.77950,R,ugm-3,21.72080,R,ugm-3
06-01-2023,09:00,6.763,R,ugm-3 (Ref.eq),1.49503,R,ugm-3,15.81679,R,ugm-3,18.10914,R,ugm-3
06-01-2023,10:00,6.763,R,ugm-3 (Ref.eq),1.19603,R,ugm-3,12.81621,R,ugm-3,14.65009,R,ugm-3
06-01-2023,11:00,9.662,R,ugm-3 (Ref.eq),1.42859,R,ugm-3,9.96707,R,ugm-3,12.15754,R,ugm-3
06-01-2023,12:00,8.696,R,ugm-3 (Ref.eq),2.02660,R,ugm-3,11.59355,R,ugm-3,14.70096,R,ugm-3
06-01-2023,13:00,10.628,R,ugm-3 (Ref.eq),2.89040,R,ugm-3,13.01597,R,ugm-3,17.44785,R,ugm-3
06-01-2023,14:00,11.594,R,ugm-3 (Ref.eq),6.97682,R,ugm-3,16.92388,R,ugm-3,27.62153,R,ugm-3
06-01-2023,15:00,11.594,R,ugm-3 (Ref.eq),1.96015,R,ugm-3,12.45846,R,ugm-3,15.46399,R,ugm-3
06-01-2023,16:00,10.628,R,ugm-3 (Ref.eq),1.79404,R,ugm-3,15.10398,R,ugm-3,17.85480,R,ugm-3
06-01-2023,17:00,9.662,R,ugm-3 (Ref.eq),1.66115,R,ugm-3,16.27424,R,ugm-3,18.82130,R,ugm-3
06-01-2023,18:00,10.628,R,ugm-3 (Ref.eq),2.92362,R,ugm-3,15.66105,R,ugm-3,20.14388,R,ugm-3
06-01-2023,19:00,8.696,R,ugm-3 (Ref.eq),2.29238,R,ugm-3,12.91555,R,ugm-3,16.43048,R,ugm-3
06-01-2023,20:00,6.763,R,ugm-3 (Ref.eq),2.65784,R,ugm-3,9.20135,R,ugm-3,13.27665,R,ugm-3
06-01-2023,21:00,7.730,R,ugm-3 (Ref.eq),1.49503,R,ugm-3,7.01656,R,ugm-3,9.30891,R,ugm-3
06-01-2023,22:00,10.628,R,ugm-3 (Ref.eq),0.83058,R,ugm-3,4.93241,R,ugm-3,6.20594,R,ugm-3
06-01-2023,23:00,7.730,R,ugm-3 (Ref.eq),0.63124,R,ugm-3,3.40680,R,ugm-3,4.37468,R,ugm-3
06-01-2023,24:00,9.662,R,ugm-3 (Ref.eq),0.46512,R,ugm-3,2.74587,R,ugm-3,3.45905,R,ugm-3
07-01-2023,01:00,7.730,R,ugm-3 (Ref.eq),0.70863,R,ugm-3,2.98435,R,ugm-3,4.07090,R,ugm-3
07-01-2023,02:00,6.763,R,ugm-3 (Ref.eq),0.53147,R,ugm-3,3.45953,R,ugm-3,4.27444,R,ugm-3
07-01-2023,03:00,8.696,R,ugm-3 (Ref.eq),0.49826,R,ugm-3,2.18742,R,ugm-3,2.95140,R,ugm-3
07-01-2023,04:00,9.662,R,ugm-3 (Ref.eq),0.39861,R,ugm-3,3.15440,R,ugm-3,3.76558,R,ugm-3
07-01-2023,05:00,7.730,R,ugm-3 (Ref.eq),1.02973,R,ugm-3,5.34163,R,ugm-3,6.92052,R,ugm-3
07-01-2023,06:00,8.696,R,ugm-3 (Ref.eq),1.82694,R,ugm-3,9.86940,R,ugm-3,12.67066,R,ugm-3
07-01-2023,07:00,9.662,R,ugm-3 (Ref.eq),0.86364,R,ugm-3,2.89932,R,ugm-3,4.22356,R,ugm-3
07-01-2023,08:00,11.594,R,ugm-3 (Ref.eq),3.91961,R,ugm-3,5.28676,R,ugm-3,11.29674,R,ugm-3
07-01-2023,09:00,9.662,R,ugm-3 (Ref.eq),0.63112,R,ugm-3,4.68066,R,ugm-3,5.64837,R,ugm-3
07-01-2023,10:00,8.696,R,ugm-3 (Ref.eq),0.56469,R,ugm-3,7.68304,R,ugm-3,8.54888,R,ugm-3
07-01-2023,11:00,5.797,R,ugm-3 (Ref.eq),1.02973,R,ugm-3,9.56519,R,ugm-3,11.14408,R,ugm-3
07-01-2023,12:00,4.831,R,ugm-3 (Ref.eq),2.65736,R,ugm-3,15.66929,R,ugm-3,19.74385,R,ugm-3
07-01-2023,13:00,9.662,R,ugm-3 (Ref.eq),1.79372,R,ugm-3,9.15704,R,ugm-3,11.90737,R,ugm-3
07-01-2023,14:00,5.797,R,ugm-3 (Ref.eq),3.02275,R,ugm-3,9.05357,R,ugm-3,13.68839,R,ugm-3
07-01-2023,15:00,5.797,R,ugm-3 (Ref.eq),0.99651,R,ugm-3,12.10954,R,ugm-3,13.63750,R,ugm-3
07-01-2023,16:00,6.763,R,ugm-3 (Ref.eq),2.29197,R,ugm-3,12.92193,R,ugm-3,16.43624,R,ugm-3
07-01-2023,17:00,6.763,R,ugm-3 (Ref.eq),1.06294,R,ugm-3,9.76869,R,ugm-3,11.39851,R,ugm-3
07-01-2023,18:00,14.493,R,ugm-3 (Ref.eq),3.22205,R,ugm-3,17.70395,R,ugm-3,22.64436,R,ugm-3
07-01-2023,19:00,16.425,R,ugm-3 (Ref.eq),1.32868,R,ugm-3,9.81920,R,ugm-3,11.85648,R,ugm-3
07-01-2023,20:00,16.425,R,ugm-3 (Ref.eq),0.96329,R,ugm-3,7.78426,R,ugm-3,9.26129,R,ugm-3
07-01-2023,21:00,19.324,R,ugm-3 (Ref.eq),1.16260,R,ugm-3,7.58044,R,ugm-3,9.36306,R,ugm-3
07-01-2023,22:00,25.121,R,ugm-3 (Ref.eq),0.86364,R,ugm-3,4.47679,R,ugm-3,5.80103,R,ugm-3
07-01-2023,23:00,22.223,R,ugm-3 (Ref.eq),2.15911,R,ugm-3,5.79805,R,ugm-3,9.10863,R,ugm-3
07-01-2023,24:00,18.358,R,ugm-3 (Ref.eq),0.76399,R,ugm-3,3.30655,R,ugm-3,4.47799,R,ugm-3
08-01-2023,01:00,4.831,R,ugm-3 (Ref.eq),0.53138,R,ugm-3,3.32543,R,ugm-3,4.14019,R,ugm-3
08-01-2023,02:00,8.696,R,ugm-3 (Ref.eq),0.57566,R,ugm-3,2.51094,R,ugm-3,3.39360,R,ugm-3
08-01-2023,03:00,14.493,R,ugm-3 (Ref.eq),0.33211,R,ugm-3,2.13778,R,ugm-3,2.64701,R,ugm-3
08-01-2023,04:00,6.763,R,ugm-3 (Ref.eq),0.36532,R,ugm-3,3.97031,R,ugm-3,4.53046,R,ugm-3
08-01-2023,05:00,3.865,R,ugm-3 (Ref.eq),0.29890,R,ugm-3,1.17062,R,ugm-3,1.62893,R,ugm-3
08-01-2023,06:00,5.797,R,ugm-3 (Ref.eq),0.63101,R,ugm-3,4.58100,R,ugm-3,5.54854,R,ugm-3
08-01-2023,07:00,6.763,R,ugm-3 (Ref.eq),0.43174,R,ugm-3,4.07208,R,ugm-3,4.73407,R,ugm-3
08-01-2023,08:00,11.594,R,ugm-3 (Ref.eq),0.89670,R,ugm-3,6.56611,R,ugm-3,7.94103,R,ugm-3
08-01-2023,09:00,18.358,R,ugm-3 (Ref.eq),0.63101,R,ugm-3,6.05722,R,ugm-3,7.02476,R,ugm-3
08-01-2023,10:00,12.561,R,ugm-3 (Ref.eq),0.69743,R,ugm-3,4.47916,R,ugm-3,5.54854,R,ugm-3
08-01-2023,11:00,7.730,R,ugm-3 (Ref.eq),1.12918,R,ugm-3,5.95513,R,ugm-3,7.68651,R,ugm-3
08-01-2023,12:00,4.831,R,ugm-3 (Ref.eq),15.74203,R,ugm-3,21.42166,R,ugm-3,45.55911,R,ugm-3
08-01-2023,13:00,6.763,R,ugm-3 (Ref.eq),2.12551,R,ugm-3,9.67056,R,ugm-3,12.92962,R,ugm-3
08-01-2023,14:00,13.527,R,ugm-3 (Ref.eq),1.72697,R,ugm-3,11.70695,R,ugm-3,14.35494,R,ugm-3
08-01-2023,15:00,9.662,R,ugm-3 (Ref.eq),17.07048,R,ugm-3,27.93662,R,ugm-3,54.11098,R,ugm-3
08-01-2023,16:00,11.594,R,ugm-3 (Ref.eq),1.19560,R,ugm-3,12.47081,R,ugm-3,14.30403,R,ugm-3
08-01-2023,17:00,22.223,R,ugm-3 (Ref.eq),6.40973,R,ugm-3,25.04114,R,ugm-3,34.86926,R,ugm-3
08-01-2023,18:00,15.459,R,ugm-3 (Ref.eq),3.05542,R,ugm-3,14.45501,R,ugm-3,19.13991,R,ugm-3
08-01-2023,19:00,9.662,R,ugm-3 (Ref.eq),1.95945,R,ugm-3,12.87761,R,ugm-3,15.88206,R,ugm-3
08-01-2023,20:00,10.628,R,ugm-3 (Ref.eq),1.42808,R,ugm-3,10.79084,R,ugm-3,12.98053,R,ugm-3
08-01-2023,21:00,9.662,R,ugm-3 (Ref.eq),1.29523,R,ugm-3,9.16199,R,ugm-3,11.14798,R,ugm-3
08-01-2023,22:00,7.730,R,ugm-3 (Ref.eq),2.65688,R,ugm-3,16.54230,R,ugm-3,20.61613,R,ugm-3
08-01-2023,23:00,4.831,R,ugm-3 (Ref.eq),1.19560,R,ugm-3,9.51838,R,ugm-3,11.35160,R,ugm-3
08-01-2023,24:00,7.730,R,ugm-3 (Ref.eq),0.83028,R,ugm-3,8.24598,R,ugm-3,9.51905,R,ugm-3
09-01-2023,01:00,17.392,R,ugm-3 (Ref.eq),0.70838,R,ugm-3,16.63465,R,ugm-3,17.72080,R,ugm-3
09-01-2023,02:00,19.324,R,ugm-3 (Ref.eq),0.70838,R,ugm-3,4.82078,R,ugm-3,5.90694,R,ugm-3
09-01-2023,03:00,20.290,R,ugm-3 (Ref.eq),1.22859,R,ugm-3,6.16184,R,ugm-3,8.04565,R,ugm-3
09-01-2023,04:00,18.358,R,ugm-3 (Ref.eq),0.83013,R,ugm-3,8.91153,R,ugm-3,10.18437,R,ugm-3
09-01-2023,05:00,19.324,R,ugm-3 (Ref.eq),0.49808,R,ugm-3,7.48563,R,ugm-3,8.24934,R,ugm-3
09-01-2023,06:00,17.392,R,ugm-3 (Ref.eq),0.73051,R,ugm-3,4.02301,R,ugm-3,5.14311,R,ugm-3
09-01-2023,07:00,10.628,R,ugm-3 (Ref.eq),0.89654,R,ugm-3,7.43481,R,ugm-3,8.80948,R,ugm-3
09-01-2023,08:00,10.628,R,ugm-3 (Ref.eq),1.52743,R,ugm-3,8.30063,R,ugm-3,10.64267,R,ugm-3
09-01-2023,09:00,12.561,R,ugm-3 (Ref.eq),2.59000,R,ugm-3,13.03663,R,ugm-3,17.00790,R,ugm-3
09-01-2023,10:00,9.662,R,ugm-3 (Ref.eq),2.92205,R,ugm-3,13.85146,R,ugm-3,18.33187,R,ugm-3
09-01-2023,11:00,21.256,R,ugm-3 (Ref.eq),2.59000,R,ugm-3,9.06472,R,ugm-3,13.03599,R,ugm-3
09-01-2023,12:00,18.358,R,ugm-3 (Ref.eq),2.25795,R,ugm-3,7.89344,R,ugm-3,11.35557,R,ugm-3
09-01-2023,13:00,,,,7.88067,R,ugm-3,11.81579,R,ugm-3,23.89932,R,ugm-3
09-01-2023,14:00,21.256,R,ugm-3 (Ref.eq),2.98846,R,ugm-3,9.93049,R,ugm-3,14.51273,R,ugm-3
09-01-2023,15:00,19.324,R,ugm-3 (Ref.eq),2.82243,R,ugm-3,11.25442,R,ugm-3,15.58209,R,ugm-3
09-01-2023,16:00,21.256,R,ugm-3 (Ref.eq),2.55679,R,ugm-3,9.52301,R,ugm-3,13.44337,R,ugm-3
09-01-2023,17:00,23.189,R,ugm-3 (Ref.eq),2.32436,R,ugm-3,12.62919,R,ugm-3,16.19315,R,ugm-3
09-01-2023,18:00,26.087,R,ugm-3 (Ref.eq),2.65641,R,ugm-3,12.62927,R,ugm-3,16.70237,R,ugm-3
09-01-2023,19:00,24.155,R,ugm-3 (Ref.eq),2.29115,R,ugm-3,9.37018,R,ugm-3,12.88323,R,ugm-3
09-01-2023,20:00,26.087,R,ugm-3 (Ref.eq),1.66025,R,ugm-3,10.08293,R,ugm-3,12.62862,R,ugm-3
09-01-2023,21:00,28.020,R,ugm-3 (Ref.eq),2.35756,R,ugm-3,14.71699,R,ugm-3,18.33187,R,ugm-3
09-01-2023,22:00,24.155,R,ugm-3 (Ref.eq),1.16218,R,ugm-3,15.17500,R,ugm-3,16.95698,R,ugm-3
09-01-2023,23:00,24.155,R,ugm-3 (Ref.eq),0.66410,R,ugm-3,15.37856,R,ugm-3,16.39684,R,ugm-3
09-01-2023,24:00,28.986,R,ugm-3 (Ref.eq),9.49665,R,ugm-3,32.43954,R,ugm-3,47.00087,R,ugm-3
10-01-2023,01:00,28.020,R,ugm-3 (Ref.eq),5.98711,R,ugm-3,40.51260,R,ugm-3,49.69271,R,ugm-3
10-01-2023,02:00,17.392,R,ugm-3 (Ref.eq),3.68096,R,ugm-3,17.16570,R,ugm-3,22.80977,R,ugm-3
10-01-2023,03:00,16.425,R,ugm-3 (Ref.eq),0.26609,R,ugm-3,4.02157,R,ugm-3,4.42958,R,ugm-3
10-01-2023,04:00,26.087,R,ugm-3 (Ref.eq),0.29936,R,ugm-3,4.58155,R,ugm-3,5.04055,R,ugm-3
10-01-2023,05:00,19.324,R,ugm-3 (Ref.eq),1.26395,R,ugm-3,5.54643,R,ugm-3,7.48445,R,ugm-3
10-01-2023,06:00,11.594,R,ugm-3 (Ref.eq),1.53004,R,ugm-3,7.93873,R,ugm-3,10.28476,R,ugm-3
10-01-2023,07:00,10.628,R,ugm-3 (Ref.eq),1.23068,R,ugm-3,7.73585,R,ugm-3,9.62287,R,ugm-3
10-01-2023,08:00,7.730,R,ugm-3 (Ref.eq),2.26180,R,ugm-3,16.84691,R,ugm-3,20.31495,R,ugm-3
10-01-2023,09:00,7.730,R,ugm-3 (Ref.eq),2.29506,R,ugm-3,17.86511,R,ugm-3,21.38416,R,ugm-3
10-01-2023,10:00,6.763,R,ugm-3 (Ref.eq),1.66309,R,ugm-3,16.54297,R,ugm-3,19.09300,R,ugm-3
10-01-2023,11:00,16.425,R,ugm-3 (Ref.eq),2.02897,R,ugm-3,18.12038,R,ugm-3,21.23141,R,ugm-3
10-01-2023,12:00,12.561,R,ugm-3 (Ref.eq),2.32832,R,ugm-3,11.24612,R,ugm-3,14.81616,R,ugm-3
10-01-2023,13:00,18.358,R,ugm-3 (Ref.eq),2.09549,R,ugm-3,12.11227,R,ugm-3,15.32531,R,ugm-3
10-01-2023,14:00,19.324,R,ugm-3 (Ref.eq),2.12875,R,ugm-3,13.84329,R,ugm-3,17.10732,R,ugm-3
10-01-2023,15:00,22.223,R,ugm-3 (Ref.eq),1.49678,R,ugm-3,13.13211,R,ugm-3,15.42714,R,ugm-3
10-01-2023,16:00,12.561,R,ugm-3 (Ref.eq),2.59442,R,ugm-3,13.68934,R,ugm-3,17.66739,R,ugm-3
10-01-2023,17:00,15.459,R,ugm-3 (Ref.eq),3.55901,R,ugm-3,19.89843,R,ugm-3,25.35550,R,ugm-3
10-01-2023,18:00,7.730,R,ugm-3 (Ref.eq),2.59442,R,ugm-3,13.63842,R,ugm-3,17.61647,R,ugm-3
10-01-2023,19:00,6.763,R,ugm-3 (Ref.eq),1.36373,R,ugm-3,10.89221,R,ugm-3,12.98324,R,ugm-3
10-01-2023,20:00,17.392,R,ugm-3 (Ref.eq),0.69850,R,ugm-3,4.52960,R,ugm-3,5.60061,R,ugm-3
10-01-2023,21:00,19.324,R,ugm-3 (Ref.eq),0.83154,R,ugm-3,6.76950,R,ugm-3,8.04452,R,ugm-3
10-01-2023,22:00,26.087,R,ugm-3 (Ref.eq),0.83154,R,ugm-3,4.17285,R,ugm-3,5.44787,R,ugm-3
10-01-2023,23:00,25.121,R,ugm-3 (Ref.eq),0.83154,R,ugm-3,3.30730,R,ugm-3,4.58232,R,ugm-3
10-01-2023,24:00,24.155,R,ugm-3 (Ref.eq),0.46566,R,ugm-3,2.69727,R,ugm-3,3.41128,R,ugm-3
11-01-2023,01:00,27.054,R,ugm-3 (Ref.eq),0.44425,R,ugm-3,1.96602,R,ugm-3,2.64719,R,ugm-3
11-01-2023,02:00,28.020,R,ugm-3 (Ref.eq),0.39982,R,ugm-3,1.89839,R,ugm-3,2.51144,R,ugm-3
11-01-2023,03:00,28.020,R,ugm-3 (Ref.eq),0.49978,R,ugm-3,2.54267,R,ugm-3,3.30899,R,ugm-3
11-01-2023,04:00,16.425,R,ugm-3 (Ref.eq),0.36650,R,ugm-3,1.37252,R,ugm-3,1.93448,R,ugm-3
11-01-2023,05:00,10.628,R,ugm-3 (Ref.eq),0.56641,R,ugm-3,2.38959,R,ugm-3,3.25808,R,ugm-3
11-01-2023,06:00,18.358,R,ugm-3 (Ref.eq),0.33318,R,ugm-3,2.54357,R,ugm-3,3.05445,R,ugm-3
11-01-2023,07:00,15.459,R,ugm-3 (Ref.eq),0.66637,R,ugm-3,5.95257,R,ugm-3,6.97432,R,ugm-3
11-01-2023,08:00,17.392,R,ugm-3 (Ref.eq),1.63260,R,ugm-3,9.76541,R,ugm-3,12.26870,R,ugm-3
11-01-2023,09:00,24.155,R,ugm-3 (Ref.eq),1.83251,R,ugm-3,11.54609,R,ugm-3,14.35590,R,ugm-3
11-01-2023,10:00,26.087,R,ugm-3 (Ref.eq),1.53265,R,ugm-3,11.03864,R,ugm-3,13.38866,R,ugm-3
11-01-2023,11:00,17.392,R,ugm-3 (Ref.eq),1.43269,R,ugm-3,8.90107,R,ugm-3,11.09783,R,ugm-3
11-01-2023,12:00,15.459,R,ugm-3 (Ref.eq),1.49933,R,ugm-3,13.12603,R,ugm-3,15.42496,R,ugm-3
11-01-2023,13:00,11.594,R,ugm-3 (Ref.eq),3.03197,R,ugm-3,13.01593,R,ugm-3,17.66489,R,ugm-3
11-01-2023,14:00,9.662,R,ugm-3 (Ref.eq),4.56462,R,ugm-3,11.73496,R,ugm-3,18.73395,R,ugm-3
11-01-2023,15:00,22.223,R,ugm-3 (Ref.eq),1.23278,R,ugm-3,7.12039,R,ugm-3,9.01062,R,ugm-3
11-01-2023,16:00,23.189,R,ugm-3 (Ref.eq),1.79919,R,ugm-3,8.89909,R,ugm-3,11.65781,R,ugm-3
11-01-2023,17:00,24.155,R,ugm-3 (Ref.eq),1.19946,R,ugm-3,7.88418,R,ugm-3,9.72332,R,ugm-3
11-01-2023,18:00,35.749,R,ugm-3 (Ref.eq),1.13283,R,ugm-3,6.20459,R,ugm-3,7.94156,R,ugm-3
11-01-2023,19:00,35.749,R,ugm-3 (Ref.eq),1.26610,R,ugm-3,5.84752,R,ugm-3,7.78884,R,ugm-3
11-01-2023,20:00,18.358,R,ugm-3 (Ref.eq),0.76632,R,ugm-3,5.03570,R,ugm-3,6.21071,R,ugm-3
11-01-2023,21:00,21.256,R,ugm-3 (Ref.eq),0.73301,R,ugm-3,4.73043,R,ugm-3,5.85436,R,ugm-3
11-01-2023,22:00,21.256,R,ugm-3 (Ref.eq),3.86493,R,ugm-3,6.54618,R,ugm-3,12.47233,R,ugm-3
11-01-2023,23:00,6.763,R,ugm-3 (Ref.eq),0.83296,R,ugm-3,3.04995,R,ugm-3,4.32714,R,ugm-3
11-01-2023,24:00,12.561,R,ugm-3 (Ref.eq),0.66637,R,ugm-3,2.79631,R,ugm-3,3.81806,R,ugm-3